Burlington, CO

10:44 AM MST on January 19, 2018 (GMT -0700)
Kit Carson County

Weather History for KITR - December, 2012

Change the Weather History Date:

Thursday, December 13, 2012

  Actual Average Record
Temperature  
Mean Temperature 38 °F 29 °F  
Max Temperature 57 °F 42 °F 72 °F (1988)
Min Temperature 19 °F 16 °F -17 °F (1961)
Degree Days  
Heating Degree Days 24    
Moisture  
Dew Point 14 °F    
Average Humidity 37    
Maximum Humidity 60    
Minimum Humidity 20    
Precipitation  
Precipitation 0.00 in 0.01 in 0.28 in (1937)
Month to date precipitation T 0.22  
Year to date precipitation 10.56 17.25  
Sea Level Pressure  
Sea Level Pressure 29.97 in    
Wind  
Wind Speed 6 mph (SE)    
Max Wind Speed 15 mph    
Max Gust Speed -    
Visibility 10 miles    
Events      
T = Trace of Precipitation, MM = Missing Value Source: NWS Daily Summary

Daily Weather History Graph

Daily Weather History Graph

Search for Another Location

Airport or City:

Trip Planner

Search our weather history database for the weather conditions in past years. The results will help you decide how hot, cold, wet, or windy it might be!

Date:

Astronomy

Dec. 13, 2012 Rise Set
Actual Time 7:00 AM MST 4:26 PM MST
Civil Twilight 6:30 AM MST 4:56 PM MST
Nautical Twilight 5:56 AM MST 5:30 PM MST
Astronomical Twilight 5:24 AM MST 6:03 PM MST
Moon 7:11 AM MST (12/13) 5:11 PM MST (12/13)
Length of Visible Light 10h 26m
Length of Day
9h 26m
New Moon, 0% of the Moon is Illuminated
Dec 13
New Moon
Dec 19
First Quarter
Dec 28
Full
Jan 4
Last Quarter
Jan 11
New

Hourly Weather History & Observations

Time (MST) Temp. Windchill Dew Point Humidity Pressure Visibility Wind Dir Wind Speed Gust Speed Precip Events Conditions
12:53 AM 34.0 °F - 12.0 °F 40% 29.89 in 10.0 mi Calm Calm - N/A   Clear
1:53 AM 35.1 °F 28.6 °F 12.0 °F 39% 29.89 in 10.0 mi North 8.1 mph - N/A   Clear
2:53 AM 39.0 °F 36.8 °F 12.9 °F 34% 29.89 in 10.0 mi ENE 3.5 mph - N/A   Clear
3:53 AM 30.9 °F - 12.0 °F 46% 29.93 in 10.0 mi Calm Calm - N/A   Clear
4:53 AM 30.0 °F - 12.0 °F 47% 29.97 in 10.0 mi Calm Calm - N/A   Clear
5:53 AM 36.0 °F - 12.9 °F 39% 29.98 in 10.0 mi Calm Calm - N/A   Clear
6:53 AM 30.0 °F 24.1 °F 12.0 °F 47% 30.04 in 9.0 mi SSW 5.8 mph - N/A   Clear
7:53 AM 33.1 °F 26.1 °F 14.0 °F 46% 30.04 in 10.0 mi South 8.1 mph - N/A   Clear
8:53 AM 43.0 °F 40.3 °F 17.1 °F 35% 30.04 in 10.0 mi South 4.6 mph - N/A   Clear
9:53 AM 51.1 °F - 16.0 °F 25% 30.04 in 10.0 mi SE 12.7 mph - N/A   Clear
10:53 AM 53.1 °F - 16.0 °F 23% 30.02 in 10.0 mi ESE 12.7 mph - N/A   Clear
11:53 AM 54.0 °F - 16.0 °F 22% 29.98 in 10.0 mi ESE 11.5 mph - N/A   Clear
12:53 PM 55.0 °F - 16.0 °F 22% 29.96 in 10.0 mi SE 15.0 mph - N/A   Clear
1:53 PM 55.9 °F - 15.1 °F 20% 29.94 in 10.0 mi SE 13.8 mph - N/A   Clear
2:53 PM 55.9 °F - 15.1 °F 20% 29.92 in 10.0 mi SE 12.7 mph - N/A   Clear
4:53 PM 39.9 °F 32.9 °F 12.9 °F 33% 29.98 in 10.0 mi SE 11.5 mph - N/A   Clear
6:53 PM 33.1 °F 23.9 °F 12.0 °F 42% 30.01 in 10.0 mi SSE 12.7 mph - N/A   Clear
7:53 PM 33.1 °F 24.4 °F 12.9 °F 43% 29.99 in 10.0 mi SSE 11.5 mph - N/A   Clear
8:53 PM 32.0 °F 22.5 °F 12.9 °F 45% 29.96 in 10.0 mi South 12.7 mph - N/A   Clear
9:53 PM 28.0 °F - 12.0 °F 51% 29.93 in 10.0 mi North - - N/A   Clear
11:53 PM 21.9 °F 14.5 °F 10.0 °F 60% 29.91 in 10.0 mi WNW 5.8 mph - N/A   Clear